Weather reports worldwide

Advertisment
London/Heathrow Intl, United Kingdom (3772): temperature & dewpoint: 09.01.2021 17:00:00 - 15.01.2021 17:00:00 (GMT)London/Heathrow Intl, United Kingdom (3772): wind speed & gusts: 09.01.2021 17:00:00 - 15.01.2021 17:00:00 (GMT)London/Heathrow Intl, United Kingdom (3772): wind direction: 09.01.2021 17:00:00 - 15.01.2021 17:00:00 (GMT)London/Heathrow Intl, United Kingdom (3772): reduced air pressure: 09.01.2021 17:00:00 - 15.01.2021 17:00:00 (GMT)London/Heathrow Intl, United Kingdom (3772): visibility: 09.01.2021 17:00:00 - 15.01.2021 17:00:00 (GMT)London/Heathrow Intl, United Kingdom (3772): sunshine duration: 09.01.2021 17:00:00 - 15.01.2021 17:00:00 (GMT)London/Heathrow Intl, United Kingdom (3772): precipitation: 09.01.2021 17:00:00 - 15.01.2021 17:00:00 (GMT)
Date & Time tt [°C] td [°C] ff [km/h] ff [kn] fx [km/h] fx [kn] dd ppp [hPa] vv [km] sd [min] rr [mm]
15.01.2021 17:00:00 0,9 -0,7 4 2 - - E 1030,8 10 0 0,0
15.01.2021 16:00:00 2,6 0,2 4 2 - - S 1031,2 10 18 0,0
15.01.2021 15:00:00 3,6 0,3 2 1 - - WNW 1031,3 13 6 0,0
15.01.2021 14:00:00 3,4 0,5 2 1 - - - 1031,3 10 6 0,2
15.01.2021 13:00:00 2,9 0,3 4 2 - - - 1031,4 10 6 0,0
15.01.2021 12:00:00 2,3 0,6 4 2 - - - 1031,9 10 6 0,0
15.01.2021 11:00:00 1,4 0,1 5 3 - - - 1032,0 10 0 0,0
15.01.2021 10:00:00 1,3 0,2 8 4 - - N 1031,7 10 0 0,0
15.01.2021 09:00:00 0,7 -0,2 5 3 - - - 1030,9 10 0 0,0
15.01.2021 08:00:00 0,7 -0,3 8 4 - - N 1030,0 10 0 0,0
15.01.2021 07:00:00 0,8 -0,2 8 4 - - N 1029,5 10 0 0,0
15.01.2021 06:00:00 0,4 -0,4 8 4 - - NNW 1028,7 9 0 0,0
15.01.2021 05:00:00 0,3 -0,4 5 3 - - - 1028,3 10 0 0,0
15.01.2021 04:00:00 0,6 -0,4 5 3 - - - 1027,5 10 0 0,0
15.01.2021 03:00:00 0,7 -0,2 8 4 - - N 1027,0 10 0 0,0
15.01.2021 02:00:00 1,0 -0,1 9 5 - - N 1026,3 14 0 0,0
15.01.2021 01:00:00 1,7 0,2 9 5 - - N 1025,8 10 0 0,0
15.01.2021 00:00:00 2,5 0,9 11 6 - - N 1025,2 10 - 0,0
14.01.2021 23:00:00 2,7 1,1 9 5 - - N 1024,4 21 0 0,0
14.01.2021 22:00:00 2,6 1,5 11 6 - - N 1023,5 15 0 0,0
14.01.2021 21:00:00 2,8 1,3 9 5 - - NNE 1022,8 10 0 0,0
14.01.2021 20:00:00 2,8 1,3 15 8 - - NNE 1021,8 26 0 0,0
14.01.2021 19:00:00 2,9 1,7 13 7 - - NNE 1020,9 35 0 0,0
14.01.2021 18:00:00 3,0 2,1 11 6 - - NNE 1019,7 10 0 0,2
14.01.2021 17:00:00 3,3 2,4 11 6 - - NNE 1018,6 8 0 0,4
14.01.2021 16:00:00 4,3 3,5 15 8 - - NNE 1016,9 3,5 0 0,2
14.01.2021 15:00:00 4,2 3,6 13 7 - - NE 1015,2 3,2 0 0,4
14.01.2021 14:00:00 4,6 4,0 8 4 - - NE 1014,1 2,0 0 0,2
14.01.2021 13:00:00 5,2 4,5 9 5 - - NNE 1013,7 4,0 0 0,2
14.01.2021 12:00:00 5,4 4,8 9 5 - - NE 1013,6 5 0 0,6
14.01.2021 11:00:00 5,7 5,3 13 7 - - ENE 1013,3 3,2 0 0,8
14.01.2021 10:00:00 5,7 5,3 13 7 - - ENE 1012,9 2,9 0 1,0
14.01.2021 09:00:00 6,0 5,5 13 7 - - ENE 1012,8 2,5 0 2,8
14.01.2021 08:00:00 7,1 6,3 9 5 - - ENE 1012,8 5 0 1,6
14.01.2021 07:00:00 9,5 9,2 9 5 - - S 1013,1 5 0 0,8
14.01.2021 06:00:00 9,2 8,9 8 4 - - S 1013,9 6 0 1,0
14.01.2021 05:00:00 9,2 8,8 8 4 - - SSW 1014,7 2,9 0 1,2
14.01.2021 04:00:00 9,3 8,9 9 5 - - WSW 1015,3 10 0 0,4
14.01.2021 03:00:00 9,2 8,9 9 5 - - W 1015,9 10 0 0,4
14.01.2021 02:00:00 9,2 8,8 11 6 - - WSW 1016,3 6 0 1,4
14.01.2021 01:00:00 9,2 8,7 13 7 - - WSW 1016,7 9 0 0,4
14.01.2021 00:00:00 9,2 8,6 15 8 - - WSW 1017,1 14 - 0,6
13.01.2021 23:00:00 9,5 8,5 22 12 - - WSW 1017,5 10 0 0,2
13.01.2021 22:00:00 9,4 8,6 16 9 - - WSW 1017,6 35 0 0,0
13.01.2021 21:00:00 9,6 8,5 21 11 - - W 1017,6 10 0 0,0
13.01.2021 20:00:00 9,3 8,6 18 10 - - W 1017,7 3,8 0 0,0
13.01.2021 19:00:00 9,4 8,7 16 9 - - W 1017,4 10 0 0,0
13.01.2021 18:00:00 9,3 8,9 16 9 - - W 1017,2 4,3 0 0,0
13.01.2021 17:00:00 9,5 8,9 21 11 - - W 1017,0 7 0 0,0
13.01.2021 16:00:00 9,5 9,0 15 8 - - W 1017,3 5 0 0,2
13.01.2021 15:00:00 9,8 9,2 18 10 - - W 1016,9 4,1 0 0,2
13.01.2021 14:00:00 9,7 9,3 15 8 - - W 1016,8 7 0 0,0
13.01.2021 13:00:00 8,1 7,9 9 5 - - W 1017,1 2,7 0 0,2
13.01.2021 12:00:00 7,2 7,0 4 2 - - - 1017,7 2,0 0 0,2
13.01.2021 11:00:00 6,2 5,9 5 3 - - - 1018,2 2,3 0 0,0
13.01.2021 10:00:00 5,1 4,8 5 3 - - - 1018,2 2,5 0 0,2
13.01.2021 09:00:00 4,3 4,0 5 3 - - - 1018,6 4,6 0 0,0
13.01.2021 08:00:00 3,8 3,5 4 2 - - - 1018,7 3,7 0 0,2
13.01.2021 07:00:00 3,3 2,9 8 4 - - SW 1018,9 3,5 0 0,2
13.01.2021 06:00:00 2,9 2,4 8 4 - - SSW 1019,1 5 0 0,0
13.01.2021 05:00:00 2,5 1,6 8 4 - - S 1019,6 5 0 0,2
13.01.2021 04:00:00 2,1 1,4 5 3 - - S 1020,3 10 0 0,0
13.01.2021 03:00:00 0,6 -0,1 4 2 - - S 1020,5 10 0 0,0
13.01.2021 02:00:00 0,7 -0,2 4 2 - - SW 1020,5 9 0 0,0
13.01.2021 01:00:00 0,9 -0,1 5 3 - - WSW 1020,8 10 0 0,0
13.01.2021 00:00:00 1,5 0,4 8 4 - - W 1021,2 10 - 0,0
12.01.2021 23:00:00 2,9 1,3 8 4 - - W 1021,0 15 0 0,0
12.01.2021 22:00:00 2,5 1,0 5 3 - - W 1020,6 10 0 0,0
12.01.2021 21:00:00 3,2 1,0 5 3 - - WNW 1020,4 10 0 0,0
12.01.2021 20:00:00 3,2 1,1 5 3 - - WNW 1020,0 22 0 0,0
12.01.2021 19:00:00 3,1 1,2 4 2 - - NW 1019,5 22 0 0,0
12.01.2021 18:00:00 4,0 1,4 8 4 - - NNW 1018,7 35 0 0,0
12.01.2021 17:00:00 4,9 1,5 8 4 - - N 1017,6 10 0 0,0
12.01.2021 16:00:00 5,9 2,3 11 6 - - N 1017,0 10 0 0,0
12.01.2021 15:00:00 6,3 3,6 11 6 - - N 1016,0 45 0 0,0
12.01.2021 14:00:00 6,5 4,8 8 4 - - N 1015,1 10 0 0,0
12.01.2021 13:00:00 7,0 5,2 9 5 - - N 1014,4 10 0 0,0
12.01.2021 12:00:00 7,4 5,5 11 6 - - NNE 1014,1 10 0 0,0
12.01.2021 11:00:00 8,7 6,7 9 5 - - NNW 1013,3 35 0 0,0
12.01.2021 10:00:00 8,4 6,7 11 6 - - WNW 1012,4 50 0 0,0
12.01.2021 09:00:00 8,3 6,7 8 4 - - NW 1011,3 10 0 0,0
12.01.2021 08:00:00 8,5 7,0 11 6 - - NW 1010,3 10 0 0,4
12.01.2021 07:00:00 9,3 8,3 18 10 - - W 1009,1 10 0 0,4
12.01.2021 06:00:00 9,4 8,3 21 11 - - W 1008,9 10 0 0,2
12.01.2021 05:00:00 8,9 8,0 24 13 - - W 1008,8 10 0 0,6
12.01.2021 04:00:00 8,7 7,9 26 14 - - W 1009,2 10 0 0,8
12.01.2021 03:00:00 8,5 7,9 29 16 - - WSW 1009,8 7 0 1,2
12.01.2021 02:00:00 8,6 7,7 29 16 46 25 WSW 1009,8 10 0 0,4
12.01.2021 01:00:00 8,6 7,4 29 16 46 25 WSW 1010,8 10 0 0,2
12.01.2021 00:00:00 8,5 7,1 26 14 46 25 WSW 1011,6 10 - 0,2
11.01.2021 23:00:00 8,1 6,8 28 15 - - W 1012,3 10 0 0,6
11.01.2021 22:00:00 7,7 6,4 26 14 - - WSW 1012,6 9 0 1,0
11.01.2021 21:00:00 7,9 5,9 24 13 - - WSW 1013,5 10 0 0,0
11.01.2021 20:00:00 8,3 5,5 26 14 - - WSW 1014,2 40 0 0,0
11.01.2021 19:00:00 8,3 5,2 28 15 - - WSW 1014,5 10 0 0,0
11.01.2021 18:00:00 8,3 5,1 31 17 55 30 WSW 1014,5 10 0 0,0
11.01.2021 17:00:00 8,2 4,9 37 20 55 30 W 1015,2 50 0 0,0
11.01.2021 16:00:00 8,1 4,9 41 22 57 31 W 1015,3 50 0 0,0
11.01.2021 15:00:00 8,8 5,1 31 17 57 31 W 1016,0 50 0 0,0
11.01.2021 14:00:00 8,8 4,3 37 20 55 30 W 1016,2 10 0 0,0
11.01.2021 13:00:00 8,6 5,3 26 14 - - WSW 1017,2 45 0 0,0
11.01.2021 12:00:00 8,3 4,8 24 13 - - W 1018,1 10 0 0,0
11.01.2021 11:00:00 7,4 3,8 26 14 - - W 1019,3 30 0 0,0
11.01.2021 10:00:00 6,9 4,0 21 11 - - WSW 1019,3 10 0 0,0
11.01.2021 09:00:00 5,9 3,7 21 11 - - WSW 1019,3 10 0 0,0
11.01.2021 08:00:00 5,8 3,8 21 11 - - WSW 1019,4 10 0 0,0
11.01.2021 07:00:00 5,2 3,7 16 9 - - SW 1019,5 10 0 0,0
11.01.2021 06:00:00 5,2 3,6 16 9 - - WSW 1020,0 10 0 0,0
11.01.2021 05:00:00 5,0 3,7 15 8 - - WSW 1020,6 10 0 0,0
11.01.2021 04:00:00 4,6 3,0 13 7 - - WSW 1021,2 20 0 0,0
11.01.2021 03:00:00 4,4 2,9 11 6 - - WSW 1022,1 16 0 0,0
11.01.2021 02:00:00 3,9 2,9 8 4 - - SW 1022,1 10 0 0,0
11.01.2021 01:00:00 3,6 2,4 9 5 - - SW 1022,6 10 0 0,0
11.01.2021 00:00:00 3,2 2,0 9 5 46 25 SW 1023,4 10 - 0,0
10.01.2021 23:00:00 3,0 1,7 9 5 - - WSW 1023,7 10 0 0,0
10.01.2021 22:00:00 3,4 1,8 11 6 - - SW 1024,2 10 0 0,0
10.01.2021 21:00:00 3,5 1,9 13 7 - - WSW 1024,4 10 0 0,0
10.01.2021 20:00:00 3,1 1,8 11 6 - - WSW 1024,7 10 0 0,0
10.01.2021 19:00:00 3,2 2,0 8 4 - - WSW 1025,1 10 0 0,0
10.01.2021 18:00:00 3,0 1,7 9 5 - - W 1025,2 7 0 0,0
10.01.2021 17:00:00 2,8 1,6 9 5 - - W 1025,5 10 0 0,0
10.01.2021 16:00:00 2,7 1,3 13 7 - - W 1025,2 10 0 0,0
10.01.2021 15:00:00 2,6 1,4 11 6 - - W 1025,5 10 0 0,0
10.01.2021 14:00:00 2,2 1,0 15 8 - - W 1025,5 9 0 0,0
10.01.2021 13:00:00 1,8 0,9 13 7 - - WSW 1025,9 6 0 0,0
10.01.2021 12:00:00 1,3 0,8 13 7 - - WSW 1026,4 7 0 0,0
10.01.2021 11:00:00 0,5 0,3 13 7 - - WSW 1026,8 6 0 0,0
10.01.2021 10:00:00 -0,2 -0,4 15 8 - - W 1026,9 3,9 0 0,0
10.01.2021 09:00:00 -0,7 -0,9 13 7 - - W 1026,9 2,0 0 0,0
10.01.2021 08:00:00 -0,9 -1,2 9 5 - - W 1026,7 3,0 0 0,0
10.01.2021 07:00:00 -1,2 -1,5 15 8 - - W 1026,9 3,0 0 0,0
10.01.2021 06:00:00 -1,2 -1,4 11 6 - - W 1026,8 1,0 0 0,0
10.01.2021 05:00:00 -1,5 -1,7 9 5 - - W 1026,8 1,6 0 0,0
10.01.2021 04:00:00 -1,5 -1,8 9 5 - - WNW 1027,2 1,2 0 0,0
10.01.2021 03:00:00 -1,3 -1,5 11 6 - - WSW 1027,3 0,9 0 0,0
10.01.2021 02:00:00 -1,4 -1,6 8 4 - - WNW 1027,6 1,0 0 0,0
10.01.2021 01:00:00 -1,5 -1,7 9 5 - - W 1027,8 0,7 0 0,0
10.01.2021 00:00:00 -1,7 -1,9 9 5 - - W 1027,9 0,5 - 0,0
09.01.2021 23:00:00 -2,0 -2,2 9 5 - - WNW 1028,5 0,4 0 0,0
09.01.2021 22:00:00 -2,1 -2,3 11 6 - - WNW 1028,4 0,5 0 0,0
09.01.2021 21:00:00 -1,7 -1,9 8 4 - - WNW 1028,4 0,6 0 0,0
09.01.2021 20:00:00 -1,3 -1,5 9 5 - - W 1028,0 0,2 0 0,0
09.01.2021 19:00:00 -1,2 -1,7 9 5 - - WNW 1027,7 0,5 0 0,0
09.01.2021 18:00:00 -0,1 -0,9 5 3 - - WSW 1027,5 9 0 0,0
09.01.2021 17:00:00 0,5 -0,9 5 3 - - W 1027,3 8 0 0,0

tt = temperature
td = dewpoint
ff = wind speed
fx = gusts
dd = wind direction
ppp = reduced air pressure
vv = visibility
sd = sunshine duration
rr = precipitation

Next stations